| time (UTC) | temp F | wind direction | speed knots | gust knots | rain 1hr in | rain 24hr in | rain mn in | humidity % | barometer mb |
| 20260507225948 | 65 | 41 | 3.5 | 7.8 | 0.00 | 0.28 | 0.00 | 71 | 1011.1 |
| 20260507225439 | 66 | 39 | 1.7 | 5.2 | 0.00 | 0.28 | 0.00 | 72 | 1011.2 |
| 20260507224937 | 66 | 30 | 1.7 | 3.5 | 0.00 | 0.28 | 0.00 | 73 | 1011.3 |
| 20260507224502 | 66 | 30 | 0.9 | 2.6 | 0.00 | 0.28 | 0.00 | 73 | 1011.3 |
| 20260507223949 | 66 | 30 | 0.9 | 5.2 | 0.00 | 0.28 | 0.00 | 73 | 1011.4 |
| 20260507223455 | 66 | 30 | 0.0 | 5.2 | 0.00 | 0.28 | 0.00 | 73 | 1011.3 |
| 20260507222946 | 66 | 30 | 1.7 | 5.2 | 0.00 | 0.28 | 0.00 | 74 | 1011.3 |
| 20260507222435 | 66 | 35 | 1.7 | 5.2 | 0.00 | 0.28 | 0.00 | 74 | 1011.3 |
| 20260507221943 | 66 | 336 | 1.7 | 3.5 | 0.00 | 0.28 | 0.00 | 76 | 1011.3 |
| 20260507221439 | 66 | 294 | 1.7 | 2.6 | 0.00 | 0.28 | 0.00 | 77 | 1011.3 |
| 20260507220931 | 66 | 290 | 0.0 | 1.7 | 0.00 | 0.28 | 0.00 | 78 | 1011.4 |
| 20260507220427 | 66 | 290 | 0.0 | 0.0 | 0.00 | 0.28 | 0.00 | 79 | 1011.4 |
| 20260507215939 | 66 | 290 | 0.0 | 0.0 | 0.00 | 0.39 | 0.06 | 79 | 1011.6 |
| 20260507215436 | 66 | 290 | 0.0 | 0.0 | 0.00 | 0.39 | 0.06 | 79 | 1011.6 |
| 20260507214951 | 66 | 290 | 0.0 | 0.0 | 0.00 | 0.39 | 0.06 | 79 | 1011.6 |
| 20260507214427 | 66 | 290 | 0.0 | 1.7 | 0.00 | 0.39 | 0.06 | 79 | 1011.6 |
| 20260507213935 | 66 | 290 | 0.0 | 1.7 | 0.00 | 0.39 | 0.06 | 79 | 1011.6 |
| 20260507213459 | 66 | 290 | 0.0 | 0.9 | 0.00 | 0.39 | 0.06 | 79 | 1011.6 |
| 20260507212947 | 66 | 290 | 0.0 | 0.9 | 0.00 | 0.39 | 0.06 | 80 | 1011.7 |
| 20260507212445 | 67 | 290 | 0.0 | 0.9 | 0.00 | 0.39 | 0.06 | 79 | 1011.8 |
| 20260507212004 | 67 | 290 | 0.0 | 0.9 | 0.00 | 0.39 | 0.06 | 79 | 1011.9 |
| 20260507211525 | 67 | 290 | 0.0 | 0.9 | 0.00 | 0.39 | 0.06 | 78 | 1012.0 |
| 20260507211442 | 67 | 290 | 0.0 | 0.9 | 0.00 | 0.39 | 0.06 | 78 | 1012.0 |
| 20260507210928 | 67 | 290 | 0.0 | 0.0 | 0.00 | 0.39 | 0.06 | 78 | 1011.9 |
| 20260507210450 | 67 | 290 | 0.0 | 0.9 | 0.00 | 0.39 | 0.06 | 78 | 1011.9 |
| 20260507205944 | 67 | 290 | 0.0 | 0.9 | 0.00 | 0.43 | 0.06 | 78 | 1011.9 |
| 20260507205441 | 67 | 290 | 0.0 | 0.0 | 0.00 | 0.43 | 0.06 | 77 | 1011.9 |
| 20260507204954 | 67 | 290 | 0.0 | 0.0 | 0.00 | 0.43 | 0.06 | 77 | 1011.9 |
| 20260507204451 | 67 | 290 | 0.0 | 0.0 | 0.00 | 0.43 | 0.06 | 77 | 1011.9 |
| 20260507203944 | 67 | 290 | 0.0 | 0.0 | 0.00 | 0.43 | 0.06 | 77 | 1012.0 |
| 20260507203441 | 68 | 290 | 0.0 | 0.0 | 0.00 | 0.43 | 0.06 | 77 | 1012.0 |
| 20260507202932 | 68 | 290 | 0.0 | 0.0 | 0.00 | 0.43 | 0.06 | 77 | 1012.0 |
| 20260507202431 | 68 | 290 | 0.0 | 0.0 | 0.00 | 0.43 | 0.06 | 77 | 1012.0 |
| 20260507202000 | 68 | 290 | 0.0 | 0.0 | 0.00 | 0.43 | 0.06 | 77 | 1012.1 |
| 20260507201442 | 68 | 290 | 0.0 | 0.0 | 0.00 | 0.43 | 0.06 | 77 | 1012.1 |
| 20260507200929 | 68 | 290 | 0.0 | 0.0 | 0.00 | 0.43 | 0.06 | 76 | 1012.1 |
| 20260507200453 | 68 | 290 | 0.0 | 0.0 | 0.00 | 0.43 | 0.06 | 76 | 1012.1 |
| 20260507195931 | 68 | 290 | 0.0 | 0.0 | 0.00 | 0.47 | 0.06 | 76 | 1012.1 |
| 20260507195432 | 68 | 290 | 0.0 | 0.0 | 0.00 | 0.47 | 0.06 | 76 | 1012.0 |
| 20260507194941 | 68 | 290 | 0.0 | 0.9 | 0.00 | 0.47 | 0.06 | 76 | 1012.0 |
| 20260507194453 | 68 | 290 | 0.0 | 0.9 | 0.00 | 0.47 | 0.06 | 76 | 1012.0 |
| 20260507193945 | 68 | 290 | 0.0 | 0.9 | 0.00 | 0.47 | 0.06 | 77 | 1012.0 |
| 20260507193444 | 68 | 290 | 0.0 | 0.0 | 0.00 | 0.47 | 0.06 | 76 | 1012.0 |
| 20260507193025 | 67 | 290 | 0.0 | 0.9 | 0.00 | 0.47 | 0.06 | 76 | 1012.0 |
| 20260507192943 | 67 | 290 | 0.0 | 0.9 | 0.00 | 0.47 | 0.06 | 76 | 1012.0 |
| 20260507192439 | 68 | 290 | 0.0 | 0.9 | 0.00 | 0.47 | 0.06 | 76 | 1012.0 |
| 20260507191959 | 68 | 290 | 0.0 | 0.9 | 0.00 | 0.47 | 0.06 | 76 | 1011.9 |
| 20260507191501 | 68 | 290 | 0.0 | 0.9 | 0.00 | 0.47 | 0.06 | 76 | 1011.9 |
| 20260507190952 | 67 | 290 | 0.0 | 1.7 | 0.00 | 0.47 | 0.06 | 76 | 1012.0 |
| 20260507190428 | 67 | 290 | 0.9 | 2.6 | 0.00 | 0.47 | 0.06 | 76 | 1012.0 |
| 20260507185938 | 67 | 290 | 0.0 | 2.6 | 0.00 | 0.47 | 0.06 | 75 | 1011.9 |
| 20260507185519 | 67 | 290 | 0.9 | 4.3 | 0.00 | 0.47 | 0.06 | 75 | 1011.9 |
| 20260507184943 | 67 | 290 | 0.9 | 4.3 | 0.00 | 0.47 | 0.06 | 74 | 1011.9 |
| 20260507184431 | 68 | 290 | 1.7 | 6.1 | 0.00 | 0.47 | 0.06 | 73 | 1011.9 |
| 20260507183940 | 68 | 292 | 2.6 | 6.1 | 0.00 | 0.47 | 0.06 | 72 | 1011.9 |
| 20260507183507 | 68 | 296 | 3.5 | 9.6 | 0.00 | 0.47 | 0.06 | 71 | 1011.9 |
| 20260507182941 | 68 | 302 | 4.3 | 9.6 | 0.00 | 0.47 | 0.06 | 70 | 1011.9 |
| 20260507182444 | 68 | 310 | 2.6 | 7.8 | 0.00 | 0.47 | 0.06 | 70 | 1011.9 |
| 20260507181948 | 69 | 304 | 1.7 | 4.3 | 0.00 | 0.47 | 0.06 | 70 | 1011.9 |
| 20260507181445 | 69 | 299 | 1.7 | 4.3 | 0.00 | 0.47 | 0.06 | 70 | 1011.9 |
| 20260507180952 | 69 | 300 | 1.7 | 4.3 | 0.00 | 0.47 | 0.06 | 70 | 1012.0 |
| 20260507180449 | 69 | 300 | 1.7 | 4.3 | 0.00 | 0.47 | 0.06 | 70 | 1012.0 |
| 20260507175946 | 70 | 300 | 1.7 | 3.5 | 0.00 | 0.47 | 0.06 | 70 | 1012.0 |
| 20260507175436 | 70 | 300 | 0.9 | 3.5 | 0.00 | 0.47 | 0.06 | 70 | 1012.0 |
| 20260507174942 | 70 | 302 | 0.9 | 6.1 | 0.00 | 0.47 | 0.06 | 69 | 1012.0 |
| 20260507174439 | 70 | 302 | 2.6 | 6.1 | 0.00 | 0.47 | 0.06 | 69 | 1012.0 |
| 20260507173930 | 70 | 303 | 1.7 | 8.7 | 0.00 | 0.47 | 0.06 | 68 | 1012.0 |
| 20260507173455 | 70 | 303 | 4.3 | 10.4 | 0.00 | 0.47 | 0.06 | 67 | 1012.0 |
| 20260507173004 | 71 | 292 | 4.3 | 10.4 | 0.00 | 0.47 | 0.06 | 67 | 1012.0 |
| 20260507172503 | 71 | 290 | 3.5 | 7.8 | 0.00 | 0.47 | 0.06 | 66 | 1012.0 |
| 20260507171933 | 72 | 290 | 3.5 | 7.0 | 0.00 | 0.47 | 0.06 | 65 | 1012.0 |
| 20260507171429 | 72 | 269 | 3.5 | 7.0 | 0.00 | 0.47 | 0.06 | 65 | 1012.0 |
| 20260507170940 | 73 | 290 | 2.6 | 7.8 | 0.00 | 0.47 | 0.06 | 64 | 1011.9 |
| 20260507170439 | 73 | 270 | 2.6 | 9.6 | 0.00 | 0.47 | 0.06 | 63 | 1012.0 |
| 20260507165930 | 74 | 266 | 2.6 | 9.6 | 0.00 | 0.47 | 0.06 | 63 | 1012.0 |
| 20260507165455 | 74 | 269 | 3.5 | 8.7 | 0.00 | 0.47 | 0.06 | 63 | 1012.0 |
| 20260507164936 | 74 | 263 | 4.3 | 8.7 | 0.00 | 0.47 | 0.06 | 62 | 1011.9 |
| 20260507164429 | 74 | 276 | 3.5 | 8.7 | 0.00 | 0.47 | 0.06 | 61 | 1011.9 |
| 20260507163942 | 75 | 259 | 3.5 | 8.7 | 0.00 | 0.47 | 0.06 | 61 | 1011.9 |
| 20260507163438 | 75 | 248 | 2.6 | 8.7 | 0.00 | 0.47 | 0.06 | 61 | 1011.8 |
| 20260507162946 | 75 | 261 | 3.5 | 9.6 | 0.00 | 0.47 | 0.06 | 61 | 1011.9 |
| 20260507162444 | 75 | 239 | 3.5 | 9.6 | 0.00 | 0.47 | 0.06 | 61 | 1011.8 |
| 20260507161931 | 75 | 242 | 2.6 | 8.7 | 0.00 | 0.47 | 0.06 | 61 | 1011.9 |
| 20260507161428 | 76 | 244 | 4.3 | 8.7 | 0.00 | 0.47 | 0.06 | 60 | 1011.9 |
| 20260507160951 | 76 | 251 | 2.6 | 8.7 | 0.00 | 0.47 | 0.06 | 60 | 1011.8 |
| 20260507160428 | 76 | 261 | 5.2 | 9.6 | 0.00 | 0.47 | 0.06 | 60 | 1011.9 |
| 20260507155958 | 76 | 233 | 3.5 | 9.6 | 0.00 | 0.47 | 0.06 | 59 | 1011.8 |
| 20260507155502 | 77 | 238 | 5.2 | 10.4 | 0.00 | 0.47 | 0.06 | 59 | 1011.7 |
| 20260507154953 | 78 | 260 | 5.2 | 13.0 | 0.00 | 0.47 | 0.06 | 58 | 1011.8 |
| 20260507154429 | 78 | 237 | 7.0 | 12.2 | 0.00 | 0.47 | 0.06 | 57 | 1011.7 |
| 20260507153941 | 79 | 233 | 4.3 | 12.2 | 0.00 | 0.47 | 0.06 | 57 | 1011.7 |
| 20260507153436 | 79 | 258 | 7.0 | 12.2 | 0.00 | 0.47 | 0.06 | 56 | 1011.8 |
| 20260507152947 | 79 | 263 | 4.3 | 13.0 | 0.00 | 0.47 | 0.06 | 56 | 1011.7 |
| 20260507152445 | 79 | 265 | 7.0 | 13.0 | 0.00 | 0.47 | 0.06 | 56 | 1011.7 |
| 20260507151928 | 79 | 273 | 5.2 | 9.6 | 0.00 | 0.47 | 0.06 | 55 | 1011.7 |
| 20260507151430 | 79 | 346 | 0.9 | 7.0 | 0.00 | 0.47 | 0.06 | 46 | 1011.7 |
| 20260507151009 | 79 | 345 | 2.6 | 7.0 | 0.00 | 0.47 | 0.06 | 45 | 1011.8 |
| 20260507150451 | 79 | 344 | 2.6 | 5.2 | 0.00 | 0.47 | 0.06 | 45 | 1011.9 |
| 20260507145953 | 79 | 344 | 1.7 | 5.2 | 0.00 | 0.47 | 0.06 | 45 | 1011.9 |
| 20260507145430 | 79 | 344 | 1.7 | 5.2 | 0.00 | 0.47 | 0.06 | 46 | 1011.8 |
| 20260507144942 | 79 | 344 | 2.6 | 4.3 | 0.00 | 0.47 | 0.06 | 45 | 1011.8 |
| 20260507144437 | 79 | 344 | 1.7 | 8.7 | 0.00 | 0.47 | 0.06 | 47 | 1011.9 |
| 20260507143947 | 78 | 344 | 3.5 | 8.7 | 0.00 | 0.47 | 0.06 | 47 | 1012.0 |
| 20260507143444 | 78 | 6 | 3.5 | 8.7 | 0.00 | 0.47 | 0.06 | 47 | 1012.0 |
| 20260507142933 | 79 | 15 | 4.3 | 8.7 | 0.00 | 0.47 | 0.06 | 46 | 1011.9 |
| 20260507142459 | 79 | 328 | 3.5 | 8.7 | 0.00 | 0.47 | 0.06 | 47 | 1011.9 |
| 20260507141950 | 79 | 328 | 1.7 | 5.2 | 0.00 | 0.47 | 0.06 | 48 | 1011.9 |
| 20260507141446 | 79 | 328 | 1.7 | 5.2 | 0.00 | 0.47 | 0.06 | 47 | 1012.1 |
| 20260507141025 | 79 | 329 | 3.5 | 5.2 | 0.00 | 0.47 | 0.06 | 46 | 1012.2 |
| 20260507140942 | 79 | 329 | 3.5 | 5.2 | 0.00 | 0.47 | 0.06 | 46 | 1012.2 |
| 20260507140435 | 79 | 327 | 1.7 | 7.8 | 0.00 | 0.47 | 0.06 | 47 | 1012.3 |
| 20260507140002 | 79 | 327 | 3.5 | 7.8 | 0.00 | 0.47 | 0.06 | 47 | 1012.4 |
| 20260507135439 | 79 | 328 | 3.5 | 7.8 | 0.00 | 0.47 | 0.06 | 47 | 1012.5 |
| 20260507134931 | 79 | 328 | 3.5 | 7.8 | 0.00 | 0.47 | 0.06 | 46 | 1012.5 |
| 20260507134457 | 78 | 328 | 0.0 | 7.0 | 0.00 | 0.47 | 0.06 | 48 | 1012.6 |
| 20260507133947 | 78 | 328 | 2.6 | 7.0 | 0.00 | 0.47 | 0.06 | 48 | 1012.8 |
| 20260507133445 | 77 | 329 | 0.9 | 9.6 | 0.00 | 0.47 | 0.06 | 49 | 1012.9 |
| 20260507132935 | 77 | 329 | 1.7 | 9.6 | 0.00 | 0.47 | 0.06 | 49 | 1013.0 |
| 20260507132434 | 77 | 329 | 4.3 | 9.6 | 0.00 | 0.47 | 0.06 | 48 | 1013.1 |
| 20260507131944 | 77 | 332 | 4.3 | 9.6 | 0.00 | 0.47 | 0.06 | 49 | 1013.0 |
| 20260507131440 | 77 | 1 | 1.7 | 7.0 | 0.00 | 0.47 | 0.06 | 49 | 1013.1 |
| 20260507130927 | 77 | 6 | 3.5 | 7.0 | 0.00 | 0.47 | 0.06 | 49 | 1013.2 |
| 20260507130456 | 78 | 6 | 2.6 | 7.0 | 0.00 | 0.47 | 0.06 | 49 | 1013.3 |
| 20260507125955 | 78 | 6 | 2.6 | 7.0 | 0.00 | 0.47 | 0.06 | 50 | 1013.3 |
| 20260507125453 | 77 | 11 | 2.6 | 7.0 | 0.00 | 0.47 | 0.06 | 52 | 1013.3 |
| 20260507124952 | 77 | 32 | 0.0 | 4.3 | 0.00 | 0.47 | 0.06 | 52 | 1013.3 |
| 20260507124456 | 77 | 32 | 0.9 | 4.3 | 0.00 | 0.47 | 0.06 | 52 | 1013.4 |
| 20260507123950 | 76 | 38 | 0.0 | 3.5 | 0.00 | 0.47 | 0.06 | 51 | 1013.3 |
| 20260507123445 | 76 | 38 | 0.9 | 4.3 | 0.00 | 0.47 | 0.06 | 52 | 1013.4 |
| 20260507122935 | 76 | 38 | 1.7 | 5.2 | 0.00 | 0.47 | 0.06 | 48 | 1013.4 |
| 20260507122431 | 77 | 39 | 2.6 | 5.2 | 0.00 | 0.47 | 0.06 | 49 | 1013.5 |
| 20260507121942 | 76 | 52 | 0.9 | 3.5 | 0.00 | 0.47 | 0.06 | 51 | 1013.6 |
| 20260507121430 | 76 | 52 | 0.9 | 3.5 | 0.00 | 0.47 | 0.06 | 52 | 1013.6 |
| 20260507120953 | 75 | 56 | 0.9 | 3.5 | 0.00 | 0.47 | 0.06 | 52 | 1013.7 |
| 20260507120450 | 76 | 57 | 1.7 | 5.2 | 0.00 | 0.47 | 0.06 | 51 | 1013.7 |
| 20260507115936 | 76 | 62 | 2.6 | 5.2 | 0.00 | 0.47 | 0.06 | 52 | 1013.7 |
| 20260507115502 | 76 | 11 | 0.9 | 4.3 | 0.00 | 0.47 | 0.06 | 54 | 1013.7 |
| 20260507114930 | 76 | 11 | 1.7 | 4.3 | 0.00 | 0.47 | 0.06 | 54 | 1013.6 |
| 20260507114455 | 75 | 19 | 0.0 | 5.2 | 0.00 | 0.47 | 0.06 | 56 | 1013.7 |
| 20260507113939 | 75 | 19 | 1.7 | 7.0 | 0.00 | 0.47 | 0.06 | 55 | 1013.8 |
| 20260507113505 | 75 | 50 | 1.7 | 5.2 | 0.00 | 0.47 | 0.06 | 56 | 1013.8 |
| 20260507112934 | 75 | 32 | 0.9 | 1.7 | 0.00 | 0.47 | 0.06 | 57 | 1013.8 |
| 20260507112432 | 74 | 32 | 0.9 | 1.7 | 0.00 | 0.47 | 0.06 | 57 | 1013.8 |
| 20260507111944 | 74 | 32 | 0.0 | 4.3 | 0.00 | 0.47 | 0.06 | 57 | 1014.0 |
| 20260507111439 | 74 | 32 | 0.9 | 3.5 | 0.00 | 0.47 | 0.06 | 58 | 1014.1 |
| 20260507110928 | 73 | 21 | 0.0 | 5.2 | 0.00 | 0.47 | 0.06 | 57 | 1014.1 |
| 20260507110455 | 74 | 21 | 1.7 | 6.1 | 0.00 | 0.47 | 0.06 | 59 | 1014.2 |
| 20260507105938 | 73 | 49 | 1.7 | 7.0 | 0.00 | 0.47 | 0.06 | 59 | 1014.2 |
| 20260507105457 | 73 | 11 | 0.9 | 7.0 | 0.00 | 0.47 | 0.06 | 59 | 1014.2 |
| 20260507104948 | 74 | 19 | 1.7 | 7.0 | 0.00 | 0.47 | 0.06 | 59 | 1014.3 |
| 20260507104446 | 73 | 337 | 0.0 | 4.3 | 0.00 | 0.47 | 0.06 | 59 | 1014.3 |
| 20260507103938 | 73 | 337 | 0.9 | 4.3 | 0.00 | 0.47 | 0.06 | 59 | 1014.4 |
| 20260507103427 | 73 | 33 | 1.7 | 6.1 | 0.00 | 0.47 | 0.06 | 59 | 1014.4 |
| 20260507102934 | 73 | 91 | 1.7 | 6.1 | 0.00 | 0.47 | 0.06 | 60 | 1014.4 |
| 20260507102451 | 72 | 32 | 1.7 | 6.1 | 0.00 | 0.47 | 0.06 | 60 | 1014.5 |
| 20260507102001 | 72 | 64 | 2.6 | 7.0 | 0.00 | 0.47 | 0.06 | 61 | 1014.5 |
| 20260507101436 | 72 | 89 | 2.6 | 7.0 | 0.00 | 0.47 | 0.06 | 62 | 1014.6 |
| 20260507100950 | 71 | 1 | 0.0 | 3.5 | 0.00 | 0.47 | 0.06 | 62 | 1014.7 |
| 20260507100443 | 71 | 1 | 0.9 | 4.3 | 0.00 | 0.47 | 0.06 | 62 | 1014.7 |
| 20260507095937 | 71 | 1 | 1.7 | 3.5 | 0.00 | 0.47 | 0.06 | 62 | 1014.7 |
| 20260507095435 | 71 | 353 | 0.9 | 4.3 | 0.00 | 0.47 | 0.06 | 62 | 1014.7 |
| 20260507094942 | 71 | 352 | 2.6 | 5.2 | 0.00 | 0.47 | 0.06 | 62 | 1014.7 |
| 20260507094441 | 71 | 1 | 1.7 | 4.3 | 0.00 | 0.47 | 0.06 | 64 | 1014.8 |
| 20260507093949 | 70 | 19 | 1.7 | 5.2 | 0.00 | 0.47 | 0.06 | 65 | 1014.9 |
| 20260507093444 | 70 | 20 | 0.9 | 5.2 | 0.00 | 0.47 | 0.06 | 65 | 1014.9 |
| 20260507092937 | 70 | 28 | 1.7 | 4.3 | 0.00 | 0.47 | 0.06 | 65 | 1014.9 |
| 20260507092434 | 70 | 32 | 1.7 | 3.5 | 0.00 | 0.47 | 0.06 | 65 | 1014.9 |
| 20260507091941 | 70 | 32 | 0.9 | 4.3 | 0.00 | 0.47 | 0.06 | 66 | 1014.7 |
| 20260507091438 | 70 | 33 | 0.9 | 5.2 | 0.00 | 0.47 | 0.06 | 65 | 1014.7 |
| 20260507090926 | 70 | 34 | 0.0 | 4.3 | 0.00 | 0.47 | 0.06 | 66 | 1014.7 |
| 20260507090448 | 69 | 34 | 0.0 | 5.2 | 0.00 | 0.47 | 0.06 | 67 | 1014.7 |
| 20260507085942 | 69 | 33 | 2.6 | 5.2 | 0.00 | 0.47 | 0.06 | 66 | 1014.6 |
| 20260507085439 | 69 | 34 | 0.9 | 7.0 | 0.00 | 0.47 | 0.06 | 68 | 1014.6 |
| 20260507084948 | 69 | 31 | 1.7 | 7.0 | 0.00 | 0.47 | 0.06 | 67 | 1014.6 |
| 20260507084447 | 69 | 19 | 2.6 | 5.2 | 0.00 | 0.47 | 0.06 | 66 | 1014.7 |
| 20260507083939 | 69 | 56 | 0.9 | 4.3 | 0.00 | 0.47 | 0.06 | 68 | 1014.8 |
| 20260507083503 | 69 | 56 | 1.7 | 5.2 | 0.00 | 0.47 | 0.06 | 68 | 1014.7 |
| 20260507083000 | 68 | 57 | 0.9 | 5.2 | 0.00 | 0.47 | 0.06 | 70 | 1014.8 |
| 20260507082433 | 68 | 31 | 0.9 | 4.3 | 0.00 | 0.47 | 0.06 | 70 | 1014.8 |
| 20260507081945 | 68 | 29 | 2.6 | 4.3 | 0.00 | 0.47 | 0.06 | 70 | 1014.7 |
| 20260507081442 | 68 | 37 | 0.9 | 3.5 | 0.00 | 0.47 | 0.06 | 71 | 1014.8 |
| 20260507080935 | 68 | 37 | 0.9 | 4.3 | 0.00 | 0.47 | 0.06 | 71 | 1014.8 |
| 20260507080433 | 68 | 37 | 0.9 | 4.3 | 0.00 | 0.47 | 0.06 | 71 | 1014.9 |
| 20260507075945 | 68 | 38 | 0.9 | 2.6 | 0.00 | 0.47 | 0.06 | 71 | 1015.0 |
| 20260507075444 | 68 | 38 | 0.0 | 0.9 | 0.00 | 0.47 | 0.06 | 72 | 1015.0 |
| 20260507074933 | 69 | 42 | 0.0 | 0.0 | 0.00 | 0.47 | 0.06 | 73 | 1014.9 |
| 20260507074457 | 68 | 43 | 0.0 | 0.0 | 0.00 | 0.47 | 0.06 | 75 | 1014.9 |
| 20260507073942 | 68 | 43 | 0.0 | 0.0 | 0.00 | 0.47 | 0.06 | 75 | 1014.9 |
| 20260507073438 | 67 | 43 | 0.0 | 0.0 | 0.00 | 0.47 | 0.06 | 76 | 1014.9 |
| 20260507072951 | 67 | 43 | 0.0 | 0.0 | 0.00 | 0.47 | 0.06 | 77 | 1014.9 |
| 20260507072443 | 67 | 52 | 0.0 | 0.0 | 0.00 | 0.47 | 0.06 | 77 | 1014.9 |
| 20260507071934 | 66 | 52 | 0.0 | 0.0 | 0.00 | 0.47 | 0.06 | 79 | 1014.9 |
| 20260507071430 | 66 | 52 | 0.0 | 0.0 | 0.00 | 0.47 | 0.06 | 80 | 1014.9 |
| 20260507070941 | 65 | 52 | 0.0 | 0.0 | 0.00 | 0.47 | 0.06 | 81 | 1015.1 |
| 20260507070435 | 65 | 52 | 0.0 | 0.0 | 0.00 | 0.47 | 0.06 | 81 | 1015.1 |
| 20260507065955 | 64 | 52 | 0.0 | 0.0 | 0.00 | 0.47 | 0.06 | 82 | 1015.1 |
| 20260507065441 | 64 | 52 | 0.0 | 0.0 | 0.00 | 0.47 | 0.06 | 82 | 1015.1 |
| 20260507064931 | 64 | 52 | 0.0 | 0.0 | 0.00 | 0.47 | 0.06 | 83 | 1015.1 |
| 20260507064427 | 63 | 52 | 0.0 | 2.6 | 0.00 | 0.47 | 0.06 | 83 | 1015.0 |
| 20260507063939 | 63 | 52 | 0.9 | 2.6 | 0.00 | 0.47 | 0.06 | 83 | 1015.0 |
| 20260507063436 | 63 | 52 | 0.0 | 2.6 | 0.00 | 0.47 | 0.06 | 84 | 1014.9 |
| 20260507062949 | 62 | 52 | 0.9 | 2.6 | 0.00 | 0.47 | 0.06 | 84 | 1014.9 |
| 20260507062445 | 62 | 53 | 0.9 | 2.6 | 0.00 | 0.47 | 0.06 | 85 | 1014.9 |
| 20260507061936 | 62 | 53 | 0.0 | 0.0 | 0.00 | 0.47 | 0.06 | 86 | 1014.7 |
| 20260507061433 | 61 | 53 | 0.0 | 3.5 | 0.00 | 0.47 | 0.06 | 86 | 1014.7 |
| 20260507060926 | 61 | 53 | 0.9 | 3.5 | 0.00 | 0.47 | 0.06 | 86 | 1014.7 |
| 20260507060446 | 61 | 54 | 1.7 | 3.5 | 0.00 | 0.47 | 0.06 | 86 | 1014.7 |
| 20260507055956 | 61 | 61 | 0.0 | 3.5 | 0.00 | 0.51 | 0.06 | 87 | 1014.6 |
| 20260507055440 | 61 | 62 | 1.7 | 3.5 | 0.00 | 0.51 | 0.06 | 87 | 1014.6 |
| 20260507054934 | 61 | 68 | 0.9 | 2.6 | 0.00 | 0.51 | 0.06 | 87 | 1014.6 |
| 20260507054432 | 60 | 69 | 0.9 | 1.7 | 0.00 | 0.51 | 0.06 | 88 | 1014.6 |
| 20260507053943 | 60 | 69 | 0.0 | 2.6 | 0.00 | 0.51 | 0.06 | 89 | 1014.7 |
| 20260507053441 | 60 | 69 | 0.0 | 2.6 | 0.00 | 0.51 | 0.06 | 90 | 1014.7 |
| 20260507052944 | 60 | 69 | 0.9 | 2.6 | 0.00 | 0.51 | 0.06 | 90 | 1014.7 |
| 20260507052441 | 59 | 69 | 0.9 | 3.5 | 0.00 | 0.51 | 0.06 | 90 | 1014.6 |
| 20260507051949 | 59 | 69 | 0.9 | 3.5 | 0.00 | 0.51 | 0.06 | 90 | 1014.5 |
| 20260507051442 | 59 | 69 | 0.9 | 4.3 | 0.00 | 0.51 | 0.06 | 90 | 1014.6 |
| 20260507050935 | 59 | 69 | 1.7 | 4.3 | 0.00 | 0.51 | 0.06 | 90 | 1014.6 |
| 20260507050431 | 58 | 69 | 2.6 | 4.3 | 0.00 | 0.51 | 0.06 | 90 | 1014.6 |
| 20260507045946 | 58 | 69 | 1.7 | 3.5 | 0.00 | 0.55 | 0.06 | 90 | 1014.5 |
| 20260507045443 | 58 | 69 | 1.7 | 3.5 | 0.00 | 0.55 | 0.06 | 90 | 1014.5 |
| 20260507044937 | 58 | 69 | 0.9 | 3.5 | 0.00 | 0.55 | 0.06 | 90 | 1014.5 |
| 20260507044435 | 58 | 69 | 0.9 | 4.3 | 0.00 | 0.55 | 0.06 | 90 | 1014.4 |
| 20260507044005 | 58 | 69 | 2.6 | 4.3 | 0.00 | 0.55 | 0.06 | 90 | 1014.3 |
| 20260507043441 | 58 | 69 | 0.0 | 5.2 | 0.00 | 0.55 | 0.06 | 90 | 1014.3 |
| 20260507042933 | 58 | 68 | 2.6 | 5.2 | 0.00 | 0.55 | 0.06 | 90 | 1014.4 |
| 20260507042432 | 58 | 67 | 2.6 | 5.2 | 0.00 | 0.55 | 0.06 | 90 | 1014.5 |
| 20260507041945 | 58 | 64 | 1.7 | 4.3 | 0.00 | 0.55 | 0.06 | 90 | 1014.4 |
| 20260507041443 | 58 | 64 | 1.7 | 7.0 | 0.00 | 0.55 | 0.06 | 90 | 1014.4 |
| 20260507040936 | 58 | 77 | 3.5 | 7.0 | 0.00 | 0.55 | 0.06 | 90 | 1014.3 |
| 20260507040434 | 58 | 80 | 1.7 | 5.2 | 0.00 | 0.55 | 0.06 | 90 | 1014.3 |
| 20260507035948 | 58 | 83 | 1.7 | 5.2 | 0.00 | 0.55 | 0.06 | 90 | 1014.3 |
| 20260507035441 | 58 | 84 | 2.6 | 5.2 | 0.00 | 0.55 | 0.06 | 90 | 1014.3 |
| 20260507034955 | 58 | 85 | 2.6 | 5.2 | 0.00 | 0.55 | 0.06 | 91 | 1014.3 |
| 20260507034430 | 58 | 89 | 2.6 | 5.2 | 0.00 | 0.55 | 0.06 | 91 | 1014.3 |
| 20260507033943 | 58 | 90 | 1.7 | 4.3 | 0.00 | 0.55 | 0.06 | 91 | 1014.3 |
| 20260507033440 | 58 | 90 | 1.7 | 5.2 | 0.00 | 0.55 | 0.06 | 91 | 1014.4 |
| 20260507032933 | 58 | 90 | 0.9 | 6.1 | 0.00 | 0.55 | 0.06 | 91 | 1014.4 |
| 20260507032432 | 58 | 90 | 1.7 | 6.1 | 0.00 | 0.55 | 0.06 | 91 | 1014.4 |
| 20260507031947 | 58 | 90 | 2.6 | 5.2 | 0.00 | 0.55 | 0.06 | 91 | 1014.4 |
| 20260507031445 | 58 | 90 | 0.9 | 3.5 | 0.00 | 0.55 | 0.06 | 91 | 1014.5 |
| 20260507030935 | 58 | 90 | 1.7 | 7.0 | 0.00 | 0.55 | 0.06 | 91 | 1014.4 |
| 20260507030459 | 58 | 91 | 1.7 | 7.0 | 0.00 | 0.55 | 0.06 | 91 | 1014.3 |
| 20260507025929 | 58 | 96 | 2.6 | 6.1 | 0.00 | 0.55 | 0.06 | 91 | 1014.3 |
| 20260507025428 | 58 | 95 | 1.7 | 5.2 | 0.00 | 0.55 | 0.06 | 91 | 1014.3 |
| 20260507024943 | 58 | 59 | 1.7 | 5.2 | 0.04 | 0.55 | 0.06 | 91 | 1014.3 |
| 20260507024509 | 58 | 36 | 0.9 | 4.3 | 0.08 | 0.55 | 0.06 | 91 | 1014.3 |
| 20260507023938 | 59 | 33 | 0.9 | 5.2 | 0.08 | 0.55 | 0.06 | 91 | 1014.4 |
| 20260507023436 | 59 | 78 | 1.7 | 7.8 | 0.12 | 0.55 | 0.06 | 91 | 1014.3 |
| 20260507022948 | 59 | 80 | 3.5 | 7.8 | 0.12 | 0.55 | 0.06 | 91 | 1014.4 |
| 20260507022442 | 59 | 83 | 2.6 | 8.7 | 0.16 | 0.55 | 0.06 | 91 | 1014.4 |
| 20260507021927 | 59 | 75 | 3.5 | 8.7 | 0.16 | 0.55 | 0.06 | 90 | 1014.4 |
| 20260507021427 | 59 | 82 | 5.2 | 8.7 | 0.16 | 0.55 | 0.06 | 91 | 1014.3 |
| 20260507020939 | 59 | 79 | 3.5 | 7.8 | 0.16 | 0.55 | 0.06 | 91 | 1014.4 |
| 20260507020504 | 59 | 77 | 2.6 | 7.0 | 0.16 | 0.55 | 0.06 | 91 | 1014.4 |
| 20260507015933 | 59 | 77 | 3.5 | 5.2 | 0.16 | 0.55 | 0.06 | 91 | 1014.5 |
| 20260507015431 | 59 | 79 | 0.9 | 3.5 | 0.16 | 0.55 | 0.06 | 91 | 1014.5 |
| 20260507014937 | 59 | 79 | 0.9 | 4.3 | 0.12 | 0.51 | 0.05 | 91 | 1014.4 |
| 20260507014432 | 59 | 79 | 0.9 | 5.2 | 0.08 | 0.47 | 0.04 | 90 | 1014.4 |
| 20260507013945 | 59 | 79 | 2.6 | 5.2 | 0.08 | 0.47 | 0.04 | 90 | 1014.5 |
| 20260507013440 | 59 | 80 | 0.9 | 2.6 | 0.04 | 0.43 | 0.03 | 90 | 1014.4 |
| 20260507012951 | 59 | 80 | 0.0 | 5.2 | 0.04 | 0.43 | 0.03 | 90 | 1014.4 |
| 20260507012448 | 59 | 80 | 0.0 | 5.2 | 0.00 | 0.39 | 0.02 | 90 | 1014.3 |
| 20260507012001 | 59 | 80 | 3.5 | 7.8 | 0.00 | 0.39 | 0.02 | 89 | 1014.3 |
| 20260507011435 | 59 | 81 | 4.3 | 7.8 | 0.00 | 0.39 | 0.02 | 89 | 1014.2 |
| 20260507010948 | 59 | 86 | 3.5 | 7.0 | 0.00 | 0.39 | 0.02 | 89 | 1014.3 |
| 20260507010446 | 59 | 91 | 2.6 | 3.5 | 0.04 | 0.39 | 0.02 | 89 | 1014.3 |
| 20260507005935 | 59 | 91 | 0.9 | 3.5 | 0.04 | 0.39 | 0.02 | 89 | 1014.4 |
| 20260507005432 | 59 | 91 | 0.9 | 2.6 | 0.08 | 0.39 | 0.02 | 89 | 1014.4 |
| 20260507004941 | 59 | 91 | 0.9 | 5.2 | 0.08 | 0.39 | 0.02 | 89 | 1014.4 |
| 20260507004438 | 59 | 91 | 0.9 | 5.2 | 0.12 | 0.39 | 0.02 | 89 | 1014.4 |
| 20260507003929 | 59 | 91 | 0.9 | 6.1 | 0.12 | 0.39 | 0.02 | 89 | 1014.4 |
| 20260507003508 | 59 | 91 | 2.6 | 6.1 | 0.12 | 0.39 | 0.02 | 88 | 1014.5 |
| 20260507002939 | 59 | 92 | 0.9 | 7.0 | 0.12 | 0.39 | 0.02 | 88 | 1014.5 |
| 20260507002502 | 59 | 91 | 3.5 | 7.0 | 0.12 | 0.39 | 0.02 | 87 | 1014.4 |
| 20260507001959 | 59 | 88 | 2.6 | 7.0 | 0.12 | 0.39 | 0.02 | 87 | 1014.5 |
| 20260507001431 | 60 | 81 | 3.5 | 7.0 | 0.12 | 0.39 | 0.02 | 87 | 1014.5 |
| 20260507001003 | 60 | 113 | 2.6 | 7.0 | 0.12 | 0.39 | 0.02 | 86 | 1014.4 |
| 20260507000436 | 60 | 127 | 2.6 | 7.8 | 0.08 | 0.35 | 0.02 | 87 | 1014.5 |
| 20260507000006 | 61 | 145 | 1.7 | 7.8 | 0.08 | 0.35 | 0.02 | 86 | 1014.5 |
| 20260506235442 | 61 | 153 | 2.6 | 8.7 | 0.04 | 0.31 | 0.01 | 86 | 1014.6 |
| 20260506234959 | 61 | 151 | 3.5 | 9.6 | 0.04 | 0.31 | 0.01 | 85 | 1014.6 |
| 20260506234436 | 61 | 156 | 2.6 | 9.6 | 0.00 | 0.28 | 0.00 | 86 | 1014.6 |
| 20260506233929 | 61 | 170 | 3.5 | 13.9 | 0.00 | 0.28 | 0.00 | 86 | 1014.7 |
| 20260506233431 | 61 | 163 | 4.3 | 19.1 | 0.00 | 0.28 | 0.00 | 85 | 1014.7 |
| 20260506232941 | 61 | 165 | 5.2 | 19.1 | 0.00 | 0.28 | 0.00 | 85 | 1014.6 |
| 20260506232437 | 61 | 179 | 4.3 | 15.6 | 0.00 | 0.28 | 0.00 | 84 | 1014.6 |
| 20260506231947 | 61 | 165 | 7.8 | 15.6 | 0.00 | 0.28 | 0.00 | 84 | 1014.6 |
| 20260506231443 | 61 | 186 | 7.0 | 13.0 | 0.00 | 0.28 | 0.00 | 84 | 1014.5 |
| 20260506230933 | 61 | 190 | 5.2 | 14.8 | 0.00 | 0.28 | 0.00 | 84 | 1014.4 |
| 20260506230519 | 61 | 131 | 6.1 | 14.8 | 0.00 | 0.28 | 0.00 | 84 | 1014.4 |